Location: Navalmoral
(40.4603°N, 4.7686°W)
Time: 21:12:19
(UTC+00:00)

CSL-04 Rocket - Pass Details

Date: 05 August 2024
Orbit: 804 x 859 km, 98.7° (Epoch: 17 September)

Event Time Altitude Azimuth Distance (km) Brightness Sun altitude
Exits shadow 20:38:58 - 177° (S) 3,359 6.5 -12.5°
Reaches altitude 10° 20:41:14 10° 181° (S) 2,486 5.8 -12.8°
Maximum altitude 20:46:40 56° 259° (W) 1,017 4.4 -13.7°
Drops below altitude 10° 20:52:07 10° 338° (NNW) 2,499 7.1 -14.5°
Sets 20:54:33 0° 342° (NNW) 3,435 7.8 -14.9°
